GW4172 Weather Reports


Display with metric or nautical units.
time (UTC)temp
F
wind
direction
speed
MPH
gust
MPH
rain 1hr
in
rain 24hr
in
rain mn
in
humidity
%
barometer
mb
20260503020702 42 297 0.0 0.0 0.00 0.00 0.00 60 1010.4
20260503020159 42 298 0.0 0.0 0.00 0.00 0.00 61 1010.8
20260503015656 42 298 0.0 0.0 0.00 0.00 0.00 59 1010.5
20260503015153 42 292 0.0 0.0 0.00 0.00 0.00 58 1010.6
20260503014649 42 299 0.0 0.0 0.00 0.00 0.00 58 1010.7
20260503014147 42 302 0.0 0.0 0.00 0.00 0.00 59 1010.5
20260503013644 42 298 0.0 0.0 0.00 0.00 0.00 58 1010.6
20260503013142 42 292 0.0 0.0 0.00 0.00 0.00 57 1010.9
20260503012638 42 299 0.0 0.0 0.00 0.00 0.00 56 1010.6
20260503012135 43 306 0.0 0.0 0.00 0.00 0.00 56 1010.8
20260503011632 43 306 0.0 0.0 0.00 0.00 0.00 59 1010.8
20260503011129 43 297 0.0 0.0 0.00 0.00 0.00 57 1010.7
20260503010625 44 290 0.0 0.0 0.00 0.00 0.00 55 1011.0
20260503010123 44 289 0.0 0.0 0.00 0.00 0.00 56 1010.8
20260503005619 44 298 0.0 0.0 0.00 0.00 0.00 55 1010.8
20260503005117 44 298 0.0 0.0 0.00 0.00 0.00 54 1011.2
20260503004613 45 290 0.0 0.0 0.00 0.00 0.00 51 1011.2
20260503004112 45 290 0.0 0.0 0.00 0.00 0.00 50 1011.1
20260503003608 45 290 0.0 0.0 0.00 0.00 0.00 49 1011.1
20260503003105 46 290 0.0 0.0 0.00 0.00 0.00 48 1011.1
20260503002602 46 289 0.0 0.0 0.00 0.00 0.00 48 1011.2
20260503002059 46 281 0.0 0.0 0.00 0.00 0.00 50 1011.5
20260503001555 46 295 0.0 0.0 0.00 0.00 0.00 48 1011.4
20260503001052 46 281 0.0 0.0 0.00 0.00 0.00 47 1011.3
20260503000550 47 166 2.0 2.0 0.00 0.00 0.00 46 1011.3
20260503000047 47 274 0.0 0.0 0.00 0.00 0.00 48 1011.5
20260502235543 47 262 0.0 0.0 0.00 0.00 0.00 46 1011.6
20260502235041 47 288 0.0 0.0 0.00 0.00 0.00 47 1011.7
20260502234537 47 295 0.0 0.0 0.00 0.00 0.00 46 1011.7
20260502234035 47 283 0.0 0.0 0.00 0.00 0.00 48 1011.7
20260502233529 47 285 0.0 0.0 0.00 0.00 0.00 45 1011.9
20260502233027 47 234 1.0 1.0 0.00 0.00 0.00 47 1011.8
20260502232523 47 297 0.0 0.0 0.00 0.00 0.00 47 1011.9
20260502232020 48 299 0.0 0.0 0.00 0.00 0.00 45 1011.9
20260502231517 48 279 0.0 0.0 0.00 0.00 0.00 46 1011.9
20260502231015 48 282 2.0 2.0 0.00 0.00 0.00 44 1012.1
20260502230513 48 157 3.0 3.0 0.00 0.00 0.00 45 1011.8
20260502230011 48 283 0.0 1.0 0.00 0.00 0.00 45 1011.9
20260502225511 48 222 1.0 2.0 0.00 0.00 0.00 45 1012.2
20260502225009 49 287 0.0 0.0 0.00 0.00 0.00 46 1012.3
20260502224505 49 262 0.0 1.0 0.00 0.00 0.00 46 1012.2
20260502224002 50 256 1.0 1.0 0.00 0.00 0.00 44 1012.1
20260502223500 50 290 0.0 0.0 0.00 0.00 0.00 45 1012.5
20260502222958 50 269 0.0 1.0 0.00 0.00 0.00 45 1012.5
20260502222455 48 254 1.0 1.0 0.00 0.00 0.00 47 1012.4
20260502221950 49 179 2.0 2.0 0.00 0.00 0.00 46 1012.6
20260502221447 48 148 1.0 2.0 0.00 0.00 0.00 48 1012.7
20260502220944 49 282 0.0 1.0 0.00 0.00 0.00 47 1012.7
20260502220440 48 176 1.0 2.0 0.00 0.00 0.00 47 1012.8
20260502215937 49 173 3.0 3.0 0.00 0.00 0.00 47 1012.8
20260502215434 51 135 4.0 5.0 0.00 0.00 0.00 46 1012.8
20260502214931 50 204 1.0 1.0 0.00 0.00 0.00 45 1012.9
20260502214428 50 240 1.0 1.0 0.00 0.00 0.00 45 1012.8
20260502213925 51 251 1.0 1.0 0.00 0.00 0.00 47 1012.8
20260502213421 49 292 0.0 1.0 0.00 0.00 0.00 48 1013.3
20260502212920 50 293 1.0 2.0 0.00 0.00 0.00 47 1013.2
20260502212419 50 130 1.0 2.0 0.00 0.00 0.00 48 1013.2
20260502211916 50 240 1.0 1.0 0.00 0.00 0.00 47 1013.1
20260502211411 50 167 1.0 2.0 0.00 0.00 0.00 47 1013.2
20260502210909 51 244 1.0 2.0 0.00 0.00 0.00 48 1013.4
20260502210405 49 217 3.0 3.0 0.00 0.00 0.00 47 1013.3
20260502205903 50 286 1.0 1.0 0.00 0.00 0.00 49 1013.5
20260502205358 48 278 1.0 1.0 0.00 0.00 0.00 53 1013.6
20260502204856 49 174 2.0 2.0 0.00 0.00 0.00 52 1013.5
20260502204353 48 291 2.0 3.0 0.00 0.00 0.00 54 1013.6
20260502203850 48 288 2.0 3.0 0.00 0.00 0.00 57 1013.9
20260502203348 49 230 1.0 1.0 0.00 0.00 0.00 54 1013.6
20260502202843 49 260 2.0 2.0 0.00 0.00 0.00 52 1014.0
20260502202341 48 177 4.0 5.0 0.00 0.00 0.00 55 1013.8
20260502201839 48 182 1.0 2.0 0.00 0.00 0.00 52 1013.7
20260502201334 48 278 1.0 1.0 0.00 0.00 0.00 53 1013.9
20260502200831 47 141 4.0 5.0 0.00 0.00 0.00 55 1014.3
20260502200327 48 193 1.0 2.0 0.00 0.00 0.00 58 1014.1
20260502195825 47 192 2.0 2.0 0.00 0.00 0.00 58 1014.3
20260502195321 48 146 5.0 6.0 0.00 0.00 0.00 57 1014.3
20260502194818 46 178 3.0 3.0 0.00 0.00 0.00 59 1014.3
20260502194315 46 248 2.0 2.0 0.00 0.00 0.00 59 1014.4
20260502193811 46 173 4.0 5.0 0.00 0.00 0.00 60 1014.4
20260502193308 48 132 2.0 6.0 0.00 0.00 0.00 59 1014.5
20260502192803 47 222 1.0 1.0 0.00 0.00 0.00 58 1014.7
20260502192304 48 179 2.0 2.0 0.00 0.00 0.00 59 1014.6
20260502191758 47 264 1.0 2.0 0.00 0.00 0.00 58 1014.9
20260502191256 45 143 3.0 5.0 0.00 0.00 0.00 60 1014.9
20260502190753 46 176 4.0 5.0 0.00 0.00 0.00 58 1014.9
20260502190250 46 63 6.0 9.0 0.00 0.00 0.00 58 1014.9
20260502185745 47 154 8.0 9.0 0.00 0.00 0.00 56 1014.9
20260502185241 48 295 2.0 2.0 0.00 0.00 0.00 55 1015.0
20260502184738 48 296 2.0 3.0 0.00 0.00 0.00 53 1015.1
20260502184234 48 218 2.0 3.0 0.00 0.00 0.00 57 1015.1
20260502183731 47 179 2.0 2.0 0.00 0.00 0.00 53 1015.2
20260502183226 49 284 2.0 2.0 0.00 0.00 0.00 53 1015.2
20260502182722 48 279 1.0 2.0 0.00 0.00 0.00 52 1015.5
20260502182217 48 266 2.0 2.0 0.00 0.00 0.00 51 1015.4
20260502181714 46 328 1.0 2.0 0.00 0.00 0.00 61 1015.5
20260502181209 47 111 4.0 6.0 0.00 0.00 0.00 59 1015.4
20260502180705 46 172 2.0 3.0 0.00 0.00 0.00 60 1015.6
20260502180202 46 267 1.0 2.0 0.00 0.00 0.00 61 1015.7
20260502170120 45 117 3.0 3.0 0.00 0.00 0.00 60 1016.4
20260502164107 45 217 5.0 7.0 0.00 0.00 0.00 62 1016.7
20260502163603 44 197 1.0 1.0 0.00 0.00 0.00 60 1016.7
20260502163100 45 178 2.0 2.0 0.00 0.00 0.00 64 1016.9
20260502162556 44 264 1.0 2.0 0.00 0.00 0.00 65 1016.8
20260502162054 44 210 2.0 2.0 0.00 0.00 0.00 63 1016.8
20260502161550 45 114 5.0 6.0 0.00 0.00 0.00 63 1016.7
20260502161048 44 143 5.0 6.0 0.00 0.00 0.00 62 1017.1
20260502160546 44 138 2.0 3.0 0.00 0.00 0.00 57 1016.8
20260502151959 45 120 2.0 3.0 0.00 0.00 0.00 56 1017.5
20260502151455 46 231 2.0 2.0 0.00 0.00 0.00 54 1017.5
20260502150953 46 144 5.0 6.0 0.00 0.00 0.00 55 1017.7
20260502150450 44 277 1.0 2.0 0.00 0.00 0.00 57 1017.4
20260502130336 40 171 1.0 1.0 0.00 0.00 0.00 65 1018.4
20260502123318 35 310 0.0 0.0 0.00 0.00 0.00 79 1018.4
20260502122815 34 310 0.0 0.0 0.00 0.00 0.00 81 1018.7
20260502122310 33 310 0.0 1.0 0.00 0.00 0.00 83 1018.5
20260502121809 32 310 1.0 1.0 0.00 0.00 0.00 85 1018.4
20260502121306 31 310 1.0 1.0 0.00 0.00 0.00 86 1018.7
20260502120803 30 310 1.0 1.0 0.00 0.00 0.00 87 1018.6
20260502120300 30 310 1.0 1.0 0.00 0.00 0.00 86 1018.7
20260502115757 29 310 1.0 1.0 0.00 0.00 0.00 87 1018.7
20260502115254 28 302 0.0 1.0 0.00 0.00 0.00 89 1018.5
20260502114750 28 313 1.0 1.0 0.00 0.00 0.00 89 1018.7
20260502114247 27 311 1.0 1.0 0.00 0.00 0.00 90 1018.7
20260502113744 27 311 1.0 1.0 0.00 0.00 0.00 90 1018.7
20260502113242 27 314 1.0 1.0 0.00 0.00 0.00 90 1018.7
20260502112740 27 316 1.0 1.0 0.00 0.00 0.00 90 1018.6
20260502112237 26 317 1.0 1.0 0.00 0.00 0.00 90 1018.7
20260502111734 26 316 1.0 1.0 0.00 0.00 0.00 91 1018.7
20260502111232 26 313 1.0 1.0 0.00 0.00 0.00 90 1018.5
20260502110729 26 317 1.0 1.0 0.00 0.00 0.00 90 1018.6
20260502110227 26 319 1.0 2.0 0.00 0.00 0.00 90 1018.6
20260502105725 26 315 1.0 1.0 0.00 0.00 0.00 91 1018.6
20260502105221 26 317 1.0 1.0 0.00 0.00 0.00 90 1018.5
20260502104718 26 315 1.0 1.0 0.00 0.00 0.00 90 1018.7
20260502104216 26 314 1.0 1.0 0.00 0.00 0.00 90 1018.5
20260502103713 25 310 1.0 1.0 0.00 0.00 0.00 90 1018.7
20260502103211 25 307 1.0 1.0 0.00 0.00 0.00 90 1018.6
20260502102707 26 315 1.0 1.0 0.00 0.00 0.00 90 1018.7
20260502102204 26 315 1.0 1.0 0.00 0.00 0.00 90 1018.5
20260502101702 26 320 1.0 1.0 0.00 0.00 0.00 91 1018.6
20260502101200 26 315 1.0 1.0 0.00 0.00 0.00 91 1018.8
20260502100658 26 313 1.0 1.0 0.00 0.00 0.00 91 1018.6
20260502100156 26 315 1.0 1.0 0.00 0.00 0.00 91 1018.7
20260502091131 26 310 1.0 1.0 0.00 0.00 0.00 89 1018.8
20260502090627 26 313 1.0 1.0 0.00 0.00 0.00 89 1018.6
20260502090125 26 314 1.0 1.0 0.00 0.00 0.00 89 1019.1
20260502071522 27 307 1.0 1.0 0.00 0.00 0.00 87 1019.5
20260502071020 27 313 1.0 1.0 0.00 0.00 0.00 88 1019.3
20260502070518 27 310 1.0 1.0 0.00 0.00 0.00 87 1019.6
20260502070016 27 312 1.0 1.0 0.00 0.00 0.00 88 1019.5
20260502065514 27 302 0.0 1.0 0.00 0.00 0.00 87 1019.7
20260502065011 27 309 1.0 1.0 0.00 0.00 0.00 88 1019.6
20260502064510 27 312 0.0 1.0 0.00 0.00 0.00 89 1019.6
20260502064006 27 314 1.0 1.0 0.00 0.00 0.00 88 1019.6
20260502063504 28 309 1.0 1.0 0.00 0.00 0.00 89 1019.9
20260502063002 28 313 1.0 1.0 0.00 0.00 0.00 89 1019.6
20260502062458 28 308 0.0 1.0 0.00 0.00 0.00 88 1019.6
20260502061957 28 299 0.0 1.0 0.00 0.00 0.00 88 1019.7
20260502061455 27 288 1.0 1.0 0.00 0.00 0.00 88 1019.8
20260502060950 28 290 0.0 1.0 0.00 0.00 0.00 89 1019.9
20260502060446 28 304 1.0 1.0 0.00 0.00 0.00 89 1019.8
20260502055943 28 308 0.0 1.0 0.00 0.00 0.00 88 1019.8
20260502055440 28 304 0.0 0.0 0.00 0.00 0.00 87 1019.7
20260502054935 28 304 1.0 1.0 0.00 0.00 0.00 88 1019.9
20260502054433 28 315 0.0 1.0 0.00 0.00 0.00 88 1019.7
20260502053930 28 307 0.0 1.0 0.00 0.00 0.00 86 1019.7
20260502053426 28 302 0.0 1.0 0.00 0.00 0.00 86 1019.9
20260502052924 28 301 0.0 0.0 0.00 0.00 0.00 85 1019.9
20260502052422 28 304 0.0 0.0 0.00 0.00 0.00 85 1019.8
20260502051920 28 301 1.0 1.0 0.00 0.00 0.00 83 1019.7
20260502051418 28 316 1.0 1.0 0.00 0.00 0.00 87 1019.9
20260502050915 28 320 1.0 1.0 0.00 0.00 0.00 86 1019.9
20260502050411 28 310 0.0 0.0 0.00 0.00 0.00 86 1019.8
20260502045909 28 308 0.0 0.0 0.00 0.00 0.00 86 1019.6
20260502045405 28 297 0.0 0.0 0.00 0.00 0.00 84 1019.7
20260502044902 28 318 1.0 1.0 0.00 0.00 0.00 83 1020.0
20260502044358 29 316 1.0 1.0 0.00 0.00 0.00 85 1019.8
20260502043855 29 304 0.0 0.0 0.00 0.00 0.00 84 1019.7
20260502043353 29 303 1.0 1.0 0.00 0.00 0.00 81 1019.8
20260502042852 30 318 1.0 1.0 0.00 0.00 0.00 82 1019.7
20260502042349 30 300 1.0 1.0 0.00 0.00 0.00 81 1019.8
20260502041847 30 306 1.0 1.0 0.00 0.00 0.00 79 1019.7
20260502041344 30 309 1.0 2.0 0.00 0.00 0.00 81 1019.7
20260502040841 30 301 0.0 1.0 0.00 0.00 0.00 82 1019.8
20260502040338 30 295 0.0 1.0 0.00 0.00 0.00 78 1019.7
20260502035834 31 303 0.0 1.0 0.00 0.00 0.00 78 1019.9
20260502035331 31 295 1.0 1.0 0.00 0.00 0.00 74 1019.8
20260502034828 31 307 1.0 1.0 0.00 0.00 0.00 78 1019.7
20260502034327 30 310 1.0 1.0 0.00 0.00 0.00 82 1019.8
20260502033824 31 317 1.0 1.0 0.00 0.00 0.00 80 1019.8
20260502033322 33 306 0.0 0.0 0.00 0.00 0.00 76 1019.7
20260502032818 33 283 0.0 1.0 0.00 0.00 0.00 72 1019.4
20260502032314 33 313 1.0 1.0 0.00 0.00 0.00 74 1019.4
20260502031813 33 318 1.0 2.0 0.00 0.00 0.00 73 1019.3
20260502031310 33 309 2.0 2.0 0.00 0.00 0.00 73 1019.6
20260502030809 32 311 2.0 2.0 0.00 0.00 0.00 76 1019.3
20260502030307 31 313 2.0 2.0 0.00 0.00 0.00 77 1019.6
20260502025803 32 300 1.0 1.0 0.00 0.00 0.00 75 1019.4
20260502025301 31 297 1.0 1.0 0.00 0.00 0.00 76 1019.3
20260502024759 30 309 1.0 1.0 0.00 0.00 0.00 79 1019.4
20260502024256 30 309 1.0 1.0 0.00 0.00 0.00 80 1019.5
20260502023754 30 301 1.0 1.0 0.00 0.00 0.00 80 1019.6
20260502023251 30 318 1.0 1.0 0.00 0.00 0.00 80 1019.4
20260502022749 30 311 1.0 1.0 0.00 0.00 0.00 81 1019.4
20260502022245 30 311 1.0 1.0 0.00 0.00 0.00 77 1019.5
20260502021742 30 318 1.0 1.0 0.00 0.00 0.00 77 1019.5
20260502021240 31 314 1.0 1.0 0.00 0.00 0.00 77 1019.5
20260502020737 31 326 1.0 1.0 0.00 0.00 0.00 78 1019.4